Location: Newark
(55.4390°N, 25.0170°E)
Time: 03:43:44
(UTC+00:00)

Envisat - Pass Details

Date: 11 March 2021
Orbit: 764 x 766 km, 98.1° (Epoch: 18 April)

Event Time Altitude Azimuth Distance (km) Brightness Sun altitude
Rises 03:18:10 0° 20° (NNE) 3,248 6.7 -13.1°
Reaches altitude 10° 03:20:44 10° 30° (NNE) 2,317 6.1 -12.8°
Maximum altitude 03:25:17 32° 94° (E) 1,302 5.0 -12.1°
Drops below altitude 10° 03:29:48 10° 157° (SSE) 2,300 5.6 -11.5°
Sets 03:32:20 0° 167° (SSE) 3,221 6.3 -11.1°
